Snowfall_Accumulation
0.0 0.0 0.0 0.0 0.0 0.0 0.0 0.6 1.7 1.2 0.0 0.0 0.0 0.0 0.0 0.0 0.0 0.0 0.0 0.0 0.0 0.0 0.0 0.0 0.0 0.0 0.0 0.0 0.0 0.0 0.0 0.0 0.0 0.0 0.0 0.0 0.0 0.0
0.0 0.0 0.0 0.0 0.0 0.0 0.1 0.2 0.7 1.6 1.2 0.0 0.0 0.0 0.0 0.0 0.0 0.0 0.0 0.0 0.0 0.0 0.0 0.0 0.0 0.0 0.0 0.0 0.0 0.0 0.0 0.0 0.0 0.0 0.0 0.0 0.0 0.0
0.0 0.0 0.0 0.0 0.0 0.0 0.0 0.0 0.5 3.3 1.3 0.0 0.0 0.3 0.4 0.7 0.4 0.0 0.0 0.0 0.0 0.0 0.1 0.0 0.0 0.0 0.0 0.0 0.0 0.0 0.0 0.0 0.0 0.0 0.0 0.0 0.0 0.0
0.0 0.0 0.0 0.0 0.0 0.0 0.5 0.4 0.8 0.1 4.5 0.3 0.1 1.2 2.2 1.8 0.8 0.3 0.0 0.1 0.0 0.0 0.0 0.0 0.0 0.0 0.0 0.0 0.3 0.2 0.2 0.0 0.0 0.0 0.0 0.0 0.0 0.0
0.0 0.0 0.0 0.0 0.0 0.0 1.0 0.6 1.7 1.7 2.0 1.9 1.0 1.7 0.9 0.5 0.3 0.1 0.0 0.0 0.0 0.0 0.0 0.0 0.0 0.0 0.0 0.1 0.2 0.1 0.4 0.4 0.4 0.3 0.2 0.0 0.0 0.0
0.0 0.0 0.0 0.0 1.5 1.3 2.0 1.4 0.9 1.4 1.9 1.1 0.8 1.3 1.4 0.2 0.2 0.8 0.1 0.0 0.0 0.0 0.0 0.0 0.1 0.0 0.0 0.0 0.0 0.0 0.0 0.0 0.0 0.0 0.0 0.1 0.1 0.0
1.8 1.1 2.6 2.7 2.1 2.8 2.3 1.5 1.0 0.9 2.3 4.2 2.4 2.2 0.8 0.5 1.0 0.0 0.9 0.0 0.2 0.0 0.0 0.0 0.0 0.0 0.0 0.0 0.0 0.0 0.1 0.0 0.2 0.4 0.3 0.5 0.6 0.6
3.7 1.9 2.3 1.9 1.4 1.1 2.3 3.0 4.4 5.5 5.9 4.8 3.9 1.1 0.0 0.5 0.2 0.4 2.2 4.3 3.0 0.0 0.3 0.1 0.0 0.0 0.0 0.0 0.0 0.0 0.1 0.1 0.1 0.3 0.6 0.7 0.8 0.7
4.0 3.0 1.6 0.5 0.7 0.7 0.4 0.8 3.0 3.9 7.0 5.4 5.0 1.7 1.4 0.6 2.8 6.5 2.1 3.7 4.8 0.0 2.8 0.6 0.1 0.0 0.0 0.0 0.0 0.0 0.0 0.2 0.2 0.4 0.7 0.8 0.7 0.7
2.6 0.4 1.0 0.5 0.1 0.6 0.9 2.0 1.0 0.2 0.0 0.1 0.3 0.7 1.0 0.9 0.5 1.6 1.7 2.7 1.3 0.1 0.3 4.7 0.2 0.1 0.0 0.0 0.0 0.0 0.1 0.3 0.9 0.6 1.2 0.7 0.9 0.3
0.7 0.1 0.2 0.5 0.1 2.0 3.7 3.8 1.2 0.1 0.0 0.1 1.0 0.6 0.9 1.1 2.0 4.2 7.8 9.2 4.7 0.7 0.0 2.2 1.0 0.0 0.0 0.0 0.0 0.1 0.4 0.5 0.4 0.3 0.7 0.8 0.9 0.8
0.5 0.2 0.1 1.0 1.6 3.4 3.0 3.6 3.0 0.6 0.6 0.6 0.1 0.0 0.1 0.3 0.7 2.0 5.7 13.6 8.5 5.7 0.0 6.1 2.2 1.8 7.5 0.7 0.0 0.0 0.0 0.0 0.1 0.2 0.5 0.5 0.6 0.8
2.2 1.3 0.5 1.2 3.0 2.8 3.2 4.6 3.6 0.3 2.3 2.1 0.7 0.0 0.1 0.1 0.1 0.1 0.6 5.6 11.0 8.9 0.1 8.0 12.3 7.1 14.9 7.0 2.9 2.7 0.0 0.0 1.5 1.1 0.5 1.3 2.0 2.3
4.2 2.2 1.5 2.4 2.2 2.1 2.6 2.9 3.5 3.5 2.9 2.4 1.2 0.5 0.3 0.2 0.0 0.1 0.1 0.6 1.3 4.9 1.8 3.4 23.9 12.1 21.1 14.0 4.7 2.5 3.0 4.1 5.0 8.4 7.9 6.8 2.8 3.2
2.2 2.1 2.8 2.3 2.5 2.1 1.4 2.3 3.1 3.0 2.9 4.4 2.9 1.2 0.5 0.2 0.4 0.5 0.2 0.1 0.3 3.0 3.1 3.3 8.3 11.0 18.8 18.5 10.0 6.7 6.4 2.9 7.1 10.2 7.8 6.0 6.6 4.9
1.8 3.7 1.1 1.1 1.3 1.7 1.2 0.6 1.1 1.6 3.7 3.8 3.3 2.1 1.8 2.6 3.8 3.5 5.1 4.1 7.6 6.2 5.3 6.7 7.9 10.6 17.3 10.6 12.9 8.5 6.9 11.3 6.6 7.4 7.1 6.1 5.3 4.6
5.1 3.7 3.0 2.8 2.6 1.4 3.2 1.8 1.2 4.0 5.8 5.7 6.9 7.8 6.3 5.6 4.9 4.6 6.3 8.2 11.3 6.4 6.6 6.9 6.3 8.4 8.9 11.2 14.1 8.5 6.2 7.0 7.3 10.5 8.3 7.1 6.9 7.9
14.1 13.2 9.8 11.3 5.2 5.1 2.9 6.3 6.6 6.3 5.7 7.8 9.3 9.5 10.3 9.6 8.9 7.9 8.6 9.9 9.8 6.6 6.5 6.6 8.7 10.1 7.6 5.4 4.3 7.4 6.6 7.8 8.1 10.3 10.5 12.8 8.5 10.3
9.4 7.4 9.0 12.3 13.5 12.2 8.2 7.6 8.6 6.1 7.8 10.3 11.2 10.0 10.2 10.2 11.3 9.2 8.3 9.3 8.3 6.2 6.1 6.6 9.4 14.1 17.5 8.5 3.1 5.3 12.6 10.1 9.3 9.4 8.7 9.2 10.2 9.8
6.6 7.0 8.5 10.5 13.9 14.5 15.5 13.1 8.8 8.4 8.9 7.9 8.7 7.9 10.6 13.1 11.2 9.8 8.9 10.0 9.5 6.7 6.4 5.7 6.2 11.3 21.1 16.4 13.5 6.9 6.8 11.7 12.7 10.7 11.5 7.6 9.3 0.9
6.1 9.1 8.6 10.6 14.3 16.3 16.6 16.7 17.5 10.3 8.9 10.6 8.5 8.5 8.0 12.4 9.6 6.8 8.8 9.5 12.1 9.5 8.4 4.1 3.6 7.1 10.2 14.6 13.6 4.5 5.4 5.8 4.3 13.8 15.0 13.3 6.6 4.1
6.4 9.7 10.8 10.7 12.9 15.9 17.5 18.6 18.7 14.7 12.7 7.0 7.1 8.4 8.9 11.4 12.1 8.6 8.1 10.6 7.8 7.7 7.7 4.9 5.1 6.3 7.6 10.5 7.6 4.4 3.2 3.2 3.7 2.4 5.2 16.0 23.2 24.2
8.2 9.1 9.7 11.3 11.8 14.4 16.4 18.1 18.2 16.0 12.4 11.4 10.7 10.2 9.6 11.8 7.7 8.5 8.6 7.7 8.6 9.2 6.7 6.9 5.1 4.5 4.4 6.3 6.1 5.0 2.8 1.9 3.0 3.8 6.0 7.0 9.6 10.2